Previsão horária em Abischthof

Hoje, 18 Maio, Terça-feira

Tempo Temperatura Precipitação Vento Pressão Humidade
00:00 +7°C° 0 mm 4 m/s 724 mmHg 93%
01:00 +6°C° 0 mm 4 m/s 725 mmHg 93%
02:00 +6°C° 0.1 mm 4 m/s 724 mmHg 94%
03:00 +7°C° 0.1 mm 3 m/s 724 mmHg 94%
04:00 +8°C° 0.1 mm 3 m/s 724 mmHg 95%
05:00 +8°C° 0.5 mm 3 m/s 725 mmHg 94%
06:00 +8°C° 0.5 mm 3 m/s 725 mmHg 94%
07:00 +8°C° 0.5 mm 3 m/s 725 mmHg 93%
08:00 +9°C° 0.2 mm 3 m/s 725 mmHg 87%
09:00 +10°C° 0.2 mm 3 m/s 725 mmHg 80%
10:00 +11°C° 0.2 mm 4 m/s 725 mmHg 74%
11:00 +12°C° 0.2 mm 4 m/s 724 mmHg 69%
12:00 +13°C° 0.2 mm 4 m/s 724 mmHg 65%
13:00 +13°C° 0.2 mm 4 m/s 724 mmHg 60%
14:00 +13°C° 0.2 mm 4 m/s 724 mmHg 59%
15:00 +13°C° 0.2 mm 4 m/s 724 mmHg 58%
16:00 +13°C° 0.2 mm 4 m/s 724 mmHg 57%
17:00 +12°C° 0.2 mm 3 m/s 724 mmHg 66%
18:00 +11°C° 0.2 mm 3 m/s 724 mmHg 74%
19:00 +9°C° 0.2 mm 3 m/s 725 mmHg 83%
20:00 +8°C° 0.2 mm 2 m/s 725 mmHg 87%
21:00 +7°C° 0.2 mm 2 m/s 726 mmHg 91%
22:00 +6°C° 0.2 mm 1 m/s 726 mmHg 95%
23:00 +6°C° 0 mm 1 m/s 726 mmHg 96%

Amanhã, 19 Maio, Quarta-feira

Tempo Temperatura Precipitação Vento Pressão Humidade
00:00 +6°C° 0 mm 1 m/s 727 mmHg 96%
01:00 +5°C° 0 mm 1 m/s 727 mmHg 97%
02:00 +5°C° 0.1 mm 1 m/s 727 mmHg 97%
03:00 +5°C° 0.1 mm 1 m/s 727 mmHg 97%
04:00 +5°C° 0.1 mm 1 m/s 727 mmHg 97%
05:00 +6°C° 0.1 mm 1 m/s 727 mmHg 96%
06:00 +7°C° 0.1 mm 1 m/s 727 mmHg 94%
07:00 +8°C° 0.1 mm 1 m/s 728 mmHg 93%
08:00 +9°C° 0.2 mm 2 m/s 727 mmHg 85%
09:00 +10°C° 0.2 mm 2 m/s 727 mmHg 78%
10:00 +11°C° 0.2 mm 3 m/s 727 mmHg 71%
11:00 +12°C° 0.4 mm 3 m/s 727 mmHg 67%
12:00 +13°C° 0.4 mm 3 m/s 726 mmHg 62%
13:00 +14°C° 0.4 mm 3 m/s 726 mmHg 58%
14:00 +13°C° 0.7 mm 3 m/s 726 mmHg 69%
15:00 +11°C° 0.7 mm 3 m/s 726 mmHg 80%
16:00 +10°C° 0.7 mm 3 m/s 726 mmHg 91%
17:00 +9°C° 0.5 mm 3 m/s 727 mmHg 91%
18:00 +9°C° 0.5 mm 3 m/s 727 mmHg 92%
19:00 +8°C° 0.5 mm 2 m/s 727 mmHg 93%
20:00 +7°C° 0.1 mm 2 m/s 728 mmHg 94%
21:00 +7°C° 0.1 mm 2 m/s 728 mmHg 95%
22:00 +6°C° 0.1 mm 2 m/s 728 mmHg 96%
23:00 +6°C° 0.2 mm 2 m/s 728 mmHg 96%

Depois de amanhã, 20 Maio, Quinta-feira

Tempo Temperatura Precipitação Vento Pressão Humidade
00:00 +7°C° 0.2 mm 2 m/s 728 mmHg 96%
01:00 +7°C° 0.2 mm 3 m/s 728 mmHg 96%
02:00 +7°C° 0.1 mm 3 m/s 729 mmHg 96%
03:00 +7°C° 0.1 mm 2 m/s 729 mmHg 96%
04:00 +6°C° 0.1 mm 2 m/s 729 mmHg 96%
05:00 +7°C° 0.3 mm 2 m/s 729 mmHg 96%
06:00 +7°C° 0.3 mm 2 m/s 730 mmHg 96%
07:00 +7°C° 0.3 mm 2 m/s 730 mmHg 96%
08:00 +7°C° 0.4 mm 2 m/s 730 mmHg 95%
09:00 +8°C° 0.4 mm 2 m/s 731 mmHg 94%
10:00 +8°C° 0.4 mm 2 m/s 731 mmHg 93%
11:00 +9°C° 0.4 mm 2 m/s 731 mmHg 88%
12:00 +11°C° 0.4 mm 1 m/s 731 mmHg 83%
13:00 +12°C° 0.4 mm 1 m/s 731 mmHg 78%
14:00 +13°C° 0.2 mm 1 m/s 731 mmHg 71%
15:00 +14°C° 0.2 mm 1 m/s 731 mmHg 64%
16:00 +15°C° 0.2 mm 1 m/s 731 mmHg 58%
17:00 +14°C° 0 mm 1 m/s 730 mmHg 64%
18:00 +13°C° 0 mm 1 m/s 730 mmHg 70%
19:00 +12°C° 0 mm 1 m/s 730 mmHg 77%
20:00 +11°C° 0 mm 1 m/s 730 mmHg 82%
21:00 +9°C° 0 mm 1 m/s 730 mmHg 87%
22:00 +7°C° 0 mm 1 m/s 730 mmHg 92%
23:00 +7°C° 0 mm 1 m/s 730 mmHg 92%

21 Maio, Sexta-feira

Tempo Temperatura Precipitação Vento Pressão Humidade
00:00 +7°C° 0 mm 1 m/s 729 mmHg 92%
01:00 +6°C° 0 mm 1 m/s 729 mmHg 91%
02:00 +5°C° 0 mm 0 m/s 728 mmHg 91%
03:00 +5°C° 0 mm 0 m/s 728 mmHg 90%
04:00 +5°C° 0 mm 0 m/s 728 mmHg 90%
05:00 +6°C° 0 mm 0 m/s 727 mmHg 85%
06:00 +7°C° 0 mm 0 m/s 727 mmHg 80%
07:00 +8°C° 0 mm 0 m/s 727 mmHg 75%
08:00 +12°C° 0 mm 1 m/s 727 mmHg 66%
09:00 +14°C° 0 mm 1 m/s 726 mmHg 56%
10:00 +17°C° 0 mm 2 m/s 725 mmHg 47%
11:00 +18°C° 0 mm 2 m/s 725 mmHg 43%
12:00 +19°C° 0 mm 3 m/s 724 mmHg 40%
13:00 +21°C° 0 mm 3 m/s 724 mmHg 37%
14:00 +21°C° 0 mm 3 m/s 723 mmHg 40%
15:00 +21°C° 0 mm 3 m/s 723 mmHg 44%
16:00 +21°C° 0 mm 3 m/s 722 mmHg 47%
17:00 +19°C° 0.1 mm 3 m/s 722 mmHg 56%
18:00 +17°C° 0.1 mm 3 m/s 722 mmHg 66%
19:00 +16°C° 0.1 mm 3 m/s 722 mmHg 76%
20:00 +14°C° 0.5 mm 3 m/s 722 mmHg 82%
21:00 +14°C° 0.5 mm 2 m/s 722 mmHg 88%
22:00 +13°C° 0.5 mm 1 m/s 722 mmHg 94%
23:00 +12°C° 1.1 mm 1 m/s 721 mmHg 95%

22 Maio, Sábado

Tempo Temperatura Precipitação Vento Pressão Humidade
00:00 +12°C° 1.1 mm 1 m/s 721 mmHg 96%
01:00 +12°C° 1.1 mm 1 m/s 720 mmHg 97%
02:00 +11°C° 3.2 mm 3 m/s 721 mmHg 96%
03:00 +10°C° 3.2 mm 4 m/s 721 mmHg 95%
04:00 +9°C° 3.2 mm 6 m/s 722 mmHg 95%
05:00 +8°C° 2.4 mm 5 m/s 722 mmHg 95%
06:00 +7°C° 2.4 mm 4 m/s 723 mmHg 95%
07:00 +8°C° 2.4 mm 3 m/s 724 mmHg 96%
08:00 +8°C° 0.7 mm 3 m/s 724 mmHg 94%
09:00 +7°C° 0.7 mm 4 m/s 724 mmHg 93%
10:00 +8°C° 0.7 mm 4 m/s 724 mmHg 92%
11:00 +8°C° 0.4 mm 4 m/s 724 mmHg 88%
12:00 +10°C° 0.4 mm 4 m/s 724 mmHg 84%
13:00 +11°C° 0.4 mm 4 m/s 724 mmHg 80%
14:00 +12°C° 0.1 mm 4 m/s 724 mmHg 73%
15:00 +13°C° 0.1 mm 4 m/s 723 mmHg 65%
16:00 +14°C° 0.1 mm 4 m/s 723 mmHg 58%
17:00 +14°C° 0.1 mm 3 m/s 723 mmHg 63%
18:00 +14°C° 0.1 mm 2 m/s 723 mmHg 67%
19:00 +13°C° 0.1 mm 2 m/s 723 mmHg 72%
20:00 +11°C° 0 mm 1 m/s 723 mmHg 77%
21:00 +10°C° 0 mm 1 m/s 724 mmHg 82%
22:00 +8°C° 0 mm 1 m/s 724 mmHg 87%
23:00 +8°C° 0 mm 1 m/s 724 mmHg 87%

23 Maio, Domingo

Tempo Temperatura Precipitação Vento Pressão Humidade
00:00 +9°C° 0 mm 1 m/s 724 mmHg 86%
01:00 +9°C° 0 mm 1 m/s 724 mmHg 86%
02:00 +8°C° 0 mm 1 m/s 724 mmHg 88%
03:00 +8°C° 0 mm 1 m/s 724 mmHg 89%
04:00 +7°C° 0 mm 1 m/s 724 mmHg 90%
05:00 +8°C° 0 mm 1 m/s 724 mmHg 87%
06:00 +9°C° 0 mm 1 m/s 725 mmHg 84%
07:00 +10°C° 0 mm 1 m/s 725 mmHg 81%
08:00 +10°C° 0.1 mm 2 m/s 725 mmHg 79%
09:00 +10°C° 0.1 mm 2 m/s 725 mmHg 78%
10:00 +10°C° 0.1 mm 3 m/s 725 mmHg 76%
11:00 +11°C° 0.1 mm 3 m/s 725 mmHg 75%
12:00 +11°C° 0.1 mm 3 m/s 725 mmHg 73%
13:00 +11°C° 0.1 mm 4 m/s 725 mmHg 71%
14:00 +11°C° 0 mm 4 m/s 725 mmHg 70%
15:00 +11°C° 0 mm 4 m/s 725 mmHg 69%
16:00 +12°C° 0 mm 4 m/s 725 mmHg 67%
17:00 +11°C° 0.1 mm 3 m/s 725 mmHg 71%
18:00 +11°C° 0.1 mm 3 m/s 725 mmHg 75%
19:00 +10°C° 0.1 mm 2 m/s 725 mmHg 78%
20:00 +10°C° 0.1 mm 2 m/s 726 mmHg 82%
21:00 +9°C° 0.1 mm 2 m/s 726 mmHg 86%
22:00 +8°C° 0.1 mm 2 m/s 727 mmHg 90%
23:00 +8°C° 0.8 mm 2 m/s 727 mmHg 92%
Mostrar mais

Necessitamos do seu Consentimento

A Meteoprog e os seus Fornecedores de Serviços podem armazenar e aceder a dados pessoais como cookies, identificadores do dispositivo ou outras tecnologias semelhantes existentes no seu dispositivo e processar estes dados para personalizar conteúdos e anúncios, assim como funcionalidades nas redes sociais e análise de tráfego.

  • Armazenar e/ou aceder a informações no seu dispositivo

    Os cookies, identificadores do dispositivo ou outras informações podem ser armazenados ou acedidos no seu dispositivo, para os fins acima indicados.

  • Anúncios e conteúdos personalizados, medição de anúncios e conteúdos, dados sobre o público-alvo e desenvolvimento de produtos

    Os anúncios e os conteúdos podem ser personalizados com base num perfil. Podem ser adicionados dados adicionais para uma maior personalização dos anúncios e dos conteúdos. A eficácia dos anúncios e dos conteúdos pode ser medida. Podem ser obtidas informações sobre o público que visualizou os anúncios e os conteúdos. Estes dados podem ser usados para desenvolver ou melhorar sistemas, softwares ou a experiência do utilizador.

Ao clicar em "Eu concordo”, permitirá o uso de cookies, identificadores do dispositivo e web beacons mencionados ou outras tecnologias semelhantes. As configurações do navegador do seu dispositivo podem ser alteradas.

Para certos fins, podem ser invocados interesses legítimos ao invés de consentimento. Pode ler mais informação sobre este assunto na nossa Política de Privacidade e Cookies.